Regional Weather Roundup
Issued by NWS

Home | Current Version | Previous Version | Text Only | Print | Product List | Glossary Off
Versions: 1 2 3 4 5 6 7 8 9 10 11 12 13 14 15 16 17 18 19 20 21 22 23 24 25 26 27 28 29 30 31 32 33 34 35 36 37 38 39 40 41 42 43 44 45 46 47 48 49 50

000
ASUS43 KLOT 240108
RWRIL

ILLINOIS REGIONAL WEATHER ROUNDUP
NATIONAL WEATHER SERVICE CHICAGO/ROMEOVILLE IL
800 PM CDT TUE AUG 23 2016

NOTE: "FAIR" INDICATES FEW OR NO CLOUDS BELOW 12,000 FEET WITH NO
SIGNIFICANT WEATHER AND/OR OBSTRUCTIONS TO VISIBILITY.

* THESE STATIONS ARE NOT UNDER NWS QUALITY CONTROL. THEY ALSO MAY NOT
  REPORT WEATHER SUCH AS PRECIPITATION OR FOG.

ILZ001-002-007-009-015-016-024-240200-
NORTHWEST ILLINOIS

CITY           SKY/WX    TMP DP  RH WIND       PRES   REMARKS
MOLINE         CLOUDY    74  67  78 SE12      30.03F
STERLING*      CLOUDY    75  67  76 VRB5      30.06F
SAVANNA*       CLOUDY    76  66  73 S14G20    30.02F
$$

ILZ003-004-008-010-011-017-018-240200-
NORTH CENTRAL ILLINOIS

CITY           SKY/WX    TMP DP  RH WIND       PRES   REMARKS
ROCKFORD       CLOUDY    74  65  73 SE12      30.08F
FREEPORT*      MOCLDY    72  65  80 SE8       30.06F
ROCHELLE*      PTCLDY    69  66  89 SE8       30.08F
DE KALB*       PTCLDY    72  65  80 SE10      30.09F
$$

ILZ005-006-012>014-019>023-240200-
NORTHEAST ILLINOIS

CITY           SKY/WX    TMP DP  RH WIND       PRES   REMARKS
CHICAGO-OHARE  CLOUDY    76  61  59 S12       30.11F
CHICAGO-MIDWAY MOCLDY    79  61  53 S10G20    30.12F HX  80
AURORA         CLOUDY    75  65  70 SE9       30.11F
LANSING*       MOCLDY    73  62  67 S7        30.14F
JOLIET*        CLOUDY    76  65  70 S6        30.12F
WAUKEGAN       CLOUDY    76  60  57 S10       30.09F
DUPAGE AIRPORT CLOUDY    75  62  64 S8        30.11S
KANKAKEE*      CLOUDY    73  64  73 SE6       30.14F
WHEELING       CLOUDY    77  60  55 S13       30.12F
MORRIS*        MOCLDY    73  66  77 SE6       30.10F
ROMEOVILLE*    CLOUDY    74  61  63 S8        30.12F
NORTHERLY ISL    N/A     75  60  59 S9          N/A
$$

LMZ740>746-240200-
SOUTHERN LAKE MICHIGAN

STATION/POSITION SKY/WX   TEMP    WIND        PRES    VSBY  WAVE
                          AIR SEA DIR/SP/G                  HT/PER
                          (F)     (DEG/KT/KT) (MB)    (MI)  (FT/S)
SOUTHERN BUOY              76 75  160/ 16/ 17 1019.4F         2/ 4
WILMETTE HARBOR            75 72  200/ 10/ 12   N/A           2/ 3
HARRISON CRIB              77     190/ 20/ 21   N/A
BURNHAM HARBOR             76     160/  8/ 13   N/A
CALUMET HARBOR             78     170/ 13/ 17 1020.1F
BURNS HARBOR               78     180/  8/ 14 1021.3F
MICHIGAN CITY 6N           75 73  180/  8/ 10   N/A           1/ 3
ST. JOSEPH                 75 75  170/  8/ 10 1020.5F         1/ 3
$$

ILZ025>027-034>036-040-047-049-050-058-095>099-240200-
WEST-CENTRAL ILLINOIS

CITY           SKY/WX    TMP DP  RH WIND       PRES   REMARKS
QUINCY         CLOUDY    74  72  93 SE10      30.04F
GALESBURG*     CLOUDY    72  67  86 SE9       30.05F
MACOMB*        CLOUDY    72  69  90 SE7       30.08F
JACKSONVILLE*  CLOUDY    73  67  83 SE8       30.08F
PITTSFIELD*    CLOUDY    73  71  92 S6        30.08S
$$

ILZ028>032-037-038-041>044-048-051>054-059>061-240200-
CENTRAL ILLINOIS

CITY           SKY/WX    TMP DP  RH WIND       PRES   REMARKS
PONTIAC        CLOUDY    75  69  82 S6        30.13F
BLOOMINGTON    CLOUDY    72  66  81 S12       30.13F
DECATUR        CLOUDY    74  65  73 S9        30.13F
PEORIA         CLOUDY    74  68  81 S10       30.08F
LACON*         CLOUDY    73  65  74 S14       30.07F
LINCOLN*       CLOUDY    74  68  82 S7        30.10F
SPRINGFIELD    MOCLDY    74  67  78 S9        30.10F
TAYLORVILLE    CLOUDY    72  67  85 SE8       30.11F
$$

ILZ033-039-045-046-055>057-062-063-240200-
EAST-CENTRAL ILLINOIS

CITY           SKY/WX    TMP DP  RH WIND       PRES   REMARKS
CHAMPAIGN      CLOUDY    72  67  84 SE6       30.14F
RANTOUL*       CLOUDY    74  69  83 SE5       30.14F
MATTOON        CLOUDY    73  66  78 S6        30.14F
PARIS*         CLOUDY    72  67  84 CALM      30.17S
$$

ILZ079-100>102-240200-
SOUTHWEST ILLINOIS

CITY           SKY/WX    TMP DP  RH WIND       PRES   REMARKS
ALTON          CLOUDY    72  68  88 SE7       30.11F
BELLEVILLE     CLOUDY    73  70  88 CALM      30.08F
CAHOKIA*       CLOUDY    74  69  85 E6        30.08F
SPARTA*        PTCLDY    74  71  90 SE7       30.11F
$$

ILZ064>066-069>071-074>076-080>082-084>086-088>090-092>094-240200-
SOUTH-CENTRAL ILLINOIS

CITY           SKY/WX    TMP DP  RH WIND       PRES   REMARKS
CARBONDALE     PTCLDY    75  71  87 SE6       30.12F
CAIRO*         PTCLDY    75  73  94 SE5       30.13F
EFFINGHAM*     CLOUDY    73  67  83 E6        30.16S
MARION         CLOUDY    77  72  83 SE3       30.14F
MT. VERNON     CLOUDY    73  64  73 SE3       30.13F
CENTRALIA*     CLOUDY    73  69  88 SE3       30.11F
SALEM*         PTCLDY    75  67  77 SE5       30.13F
$$

ILZ067-068-072-073-078-083-087-091-240200-
SOUTHEAST ILLINOIS

CITY           SKY/WX    TMP DP  RH WIND       PRES   REMARKS
LAWRENCEVILLE  CLOUDY    74  66  76 E3        30.16F
FLORA*         CLOUDY    74  69  85 SE3       30.14F
FAIRFIELD*     CLOUDY    74  68  83 CALM      30.13F
HARRISBURG*    MOCLDY    74  72  91 E5        30.14F
ROBINSON*      MOCLDY    71  68  89 SE5       30.16F
CARMI*         CLOUDY    73  72  96 SE3       30.14F
$$

ABBREVIATIONS USED IN REMARKS
   TC - TEMPERATURE IN CELSIUS
  WCI - WIND CHILL INDEX
   HX - HEAT INDEX
  VSB - VISIBILITY
$$




USA.gov is the U.S. government's official web portal to all federal, state and local government web resources and services.